Station Historical Data
Daily Summary for August 18, 2017 Units:  Metric    English   Both
« Previous Day
Next Day »
Daily Weekly Monthly Yearly Custom
  High: Low: Average:
Temperature: 32.7 °C 22.8 °C 26.4 °C
Dew Point: 23.1 °C 19.1 °C 21.2 °C
Humidity: 89% 51% 74%
Wind Speed: 1.6km/h 0km/h 0.2km/h
Wind Gust: 11.3km/h - -
Wind- - WSW
Pressure: 1015.8 hPa 1013.1 hPa -
Precipitation: 0 mm    
Historical Graphs
 
 
Tabular Data for August 18, 2017
Time Temperature Dew Point Pressure Wind Wind Speed Wind Gust Humidity Rainfall Rate (Hourly) solar Conditions
00:00 24.8 °C 22.1 °C 1015.8 hPa Calm     85% 0 mm WeatherDisplay:10.37 W/m2 CLR
00:05 24.7 °C 22.2 °C 1015.5 hPa Calm     86% 0 mm WeatherDisplay:10.37 W/m2 CLR
00:10 24.7 °C 22.2 °C 1015.5 hPa Calm     86% 0 mm WeatherDisplay:10.37 W/m2 CLR
00:15 24.7 °C 22.2 °C 1015.5 hPa Calm     86% 0 mm WeatherDisplay:10.37 W/m2 CLR
00:20 24.7 °C 22.2 °C 1015.5 hPa Calm     86% 0 mm WeatherDisplay:10.37 W/m2 CLR
00:30 24.7 °C 22.2 °C 1015.5 hPa Calm     86% 0 mm WeatherDisplay:10.37 W/m2 CLR
00:35 24.6 °C 22.1 °C 1015.5 hPa Calm     86% 0 mm WeatherDisplay:10.37 W/m2 CLR
00:40 24.6 °C 22.1 °C 1015.5 hPa Calm     86% 0 mm WeatherDisplay:10.37 W/m2 CLR
00:45 24.6 °C 22.1 °C 1015.5 hPa Calm     86% 0 mm WeatherDisplay:10.37 W/m2 CLR
00:50 24.5 °C 22 °C 1015.5 hPa Calm     86% 0 mm WeatherDisplay:10.37 W/m2 CLR
00:55 24.4 °C 21.9 °C 1015.5 hPa Calm     86% 0 mm WeatherDisplay:10.37 W/m2 CLR
01:00 24.4 °C 21.9 °C 1015.5 hPa Calm     86% 0 mm WeatherDisplay:10.37 W/m2 CLR
01:05 24.4 °C 22.1 °C 1015.5 hPa Calm     87% 0 mm WeatherDisplay:10.37 W/m2 CLR
01:10 24.3 °C 22.1 °C 1015.5 hPa Calm     87% 0 mm WeatherDisplay:10.37 W/m2 CLR
01:15 24.3 °C 22 °C 1015.5 hPa Calm     87% 0 mm WeatherDisplay:10.37 W/m2 CLR
01:20 24.2 °C 21.9 °C 1015.5 hPa Calm     87% 0 mm WeatherDisplay:10.37 W/m2 CLR
01:25 24.2 °C 21.9 °C 1015.5 hPa Calm     87% 0 mm WeatherDisplay:10.37 W/m2 CLR
01:30 24.2 °C 21.9 °C 1015.1 hPa Calm     87% 0 mm WeatherDisplay:10.37 W/m2 CLR
01:40 24.1 °C 21.9 °C 1015.1 hPa Calm     88% 0 mm WeatherDisplay:10.37 W/m2 CLR
01:45 24.1 °C 21.9 °C 1015.1 hPa Calm     88% 0 mm WeatherDisplay:10.37 W/m2 CLR
01:50 24.1 °C 21.9 °C 1015.1 hPa Calm     88% 0 mm WeatherDisplay:10.37 W/m2 CLR
01:55 24 °C 21.9 °C 1015.1 hPa Calm     88% 0 mm WeatherDisplay:10.37 W/m2 CLR
02:00 24 °C 21.9 °C 1015.1 hPa Calm     88% 0 mm WeatherDisplay:10.37 W/m2 CLR
02:05 24 °C 21.9 °C 1015.1 hPa Calm     88% 0 mm WeatherDisplay:10.37 W/m2 CLR
02:10 23.9 °C 21.8 °C 1015.1 hPa Calm     88% 0 mm WeatherDisplay:10.37 W/m2 CLR
02:15 23.9 °C 21.8 °C 1015.1 hPa Calm     88% 0 mm WeatherDisplay:10.37 W/m2 CLR
02:20 23.8 °C 21.7 °C 1015.1 hPa Calm     88% 0 mm WeatherDisplay:10.37 W/m2 CLR
02:25 23.8 °C 21.7 °C 1015.1 hPa Calm     88% 0 mm WeatherDisplay:10.37 W/m2 CLR
02:30 23.8 °C 21.7 °C 1015.1 hPa Calm     88% 0 mm WeatherDisplay:10.37 W/m2 CLR
02:40 23.8 °C 21.7 °C 1014.8 hPa Calm     88% 0 mm WeatherDisplay:10.37 W/m2 CLR
02:45 23.8 °C 21.7 °C 1014.8 hPa Calm     88% 0 mm WeatherDisplay:10.37 W/m2 CLR
02:50 23.7 °C 21.6 °C 1014.8 hPa Calm     88% 0 mm WeatherDisplay:10.37 W/m2 CLR
02:55 23.8 °C 21.7 °C 1014.8 hPa Calm     88% 0 mm WeatherDisplay:10.37 W/m2 CLR
03:00 23.7 °C 21.6 °C 1014.8 hPa Calm     88% 0 mm WeatherDisplay:10.37 W/m2 CLR
03:05 23.7 °C 21.6 °C 1014.8 hPa Calm     88% 0 mm WeatherDisplay:10.37 W/m2 CLR
03:10 23.7 °C 21.6 °C 1014.8 hPa Calm     88% 0 mm WeatherDisplay:10.37 W/m2 CLR
03:15 23.6 °C 21.5 °C 1014.8 hPa Calm     88% 0 mm WeatherDisplay:10.37 W/m2 CLR
03:20 23.6 °C 21.5 °C 1014.4 hPa Calm     88% 0 mm WeatherDisplay:10.37 W/m2 CLR
03:25 23.6 °C 21.5 °C 1014.8 hPa Calm     88% 0 mm WeatherDisplay:10.37 W/m2 CLR
03:30 23.6 °C 21.5 °C 1014.8 hPa Calm     88% 0 mm WeatherDisplay:10.37 W/m2 CLR
03:35 23.6 °C 21.4 °C 1014.8 hPa Calm     88% 0 mm WeatherDisplay:10.37 W/m2 CLR
03:40 23.6 °C 21.3 °C 1014.8 hPa Calm     87% 0 mm WeatherDisplay:10.37 W/m2 CLR
03:45 23.5 °C 21.4 °C 1014.8 hPa Calm     88% 0 mm WeatherDisplay:10.37 W/m2 CLR
03:50 23.5 °C 21.2 °C 1014.4 hPa Calm     87% 0 mm WeatherDisplay:10.37 W/m2 CLR
03:55 23.5 °C 21.4 °C 1014.4 hPa Calm     88% 0 mm WeatherDisplay:10.37 W/m2 CLR
04:00 23.4 °C 21.3 °C 1014.4 hPa Calm     88% 0 mm WeatherDisplay:10.37 W/m2 CLR
04:10 23.4 °C 21.3 °C 1014.4 hPa Calm     88% 0 mm WeatherDisplay:10.37 W/m2 CLR
04:15 23.4 °C 21.3 °C 1014.4 hPa Calm     88% 0 mm WeatherDisplay:10.37 W/m2 CLR
04:20 23.4 °C 21.3 °C 1014.4 hPa Calm     88% 0 mm WeatherDisplay:10.37 W/m2 CLR
04:25 23.4 °C 21.3 °C 1014.4 hPa Calm     88% 0 mm WeatherDisplay:10.37 W/m2 CLR
04:30 23.4 °C 21.3 °C 1014.4 hPa Calm     88% 0 mm WeatherDisplay:10.37 W/m2 CLR
04:35 23.4 °C 21.3 °C 1014.4 hPa Calm     88% 0 mm WeatherDisplay:10.37 W/m2 CLR
04:40 23.4 °C 21.3 °C 1014.4 hPa Calm     88% 0 mm WeatherDisplay:10.37 W/m2 CLR
04:45 23.4 °C 21.3 °C 1014.4 hPa Calm     88% 0 mm WeatherDisplay:10.37 W/m2 CLR
04:50 23.3 °C 21.2 °C 1014.4 hPa Calm     88% 0 mm WeatherDisplay:10.37 W/m2 CLR
04:55 23.3 °C 21.2 °C 1014.4 hPa Calm     88% 0 mm WeatherDisplay:10.37 W/m2 CLR
05:00 23.3 °C 21.2 °C 1014.4 hPa Calm     88% 0 mm WeatherDisplay:10.37 W/m2 CLR
05:05 23.3 °C 21.4 °C 1014.4 hPa Calm   1.6 km/h 89% 0 mm WeatherDisplay:10.37 W/m2 CLR
05:10 23.3 °C 21.2 °C 1014.4 hPa Calm     88% 0 mm WeatherDisplay:10.37 W/m2 CLR
05:15 23.3 °C 21.4 °C 1014.4 hPa Calm     89% 0 mm WeatherDisplay:10.37 W/m2 CLR
05:20 23.3 °C 21.4 °C 1014.4 hPa Calm     89% 0 mm WeatherDisplay:10.37 W/m2 CLR
05:25 23.3 °C 21.2 °C 1014.4 hPa Calm     88% 0 mm WeatherDisplay:10.37 W/m2 CLR
05:30 23.3 °C 21.2 °C 1014.4 hPa Calm     88% 0 mm WeatherDisplay:10.37 W/m2 CLR
05:35 23.4 °C 21.3 °C 1014.4 hPa Calm     88% 0 mm WeatherDisplay:10.37 W/m2 CLR
05:40 23.4 °C 21.3 °C 1014.4 hPa Calm     88% 0 mm WeatherDisplay:10.37 W/m2 CLR
05:45 23.4 °C 21.3 °C 1014.8 hPa Calm   1.6 km/h 88% 0 mm WeatherDisplay:10.37 W/m2 CLR
05:50 23.4 °C 21.3 °C 1014.8 hPa Calm     88% 0 mm WeatherDisplay:10.37 W/m2 CLR
05:55 23.4 °C 21.3 °C 1014.8 hPa Calm     88% 0 mm WeatherDisplay:10.37 W/m2 CLR
06:00 23.4 °C 21.3 °C 1014.8 hPa Calm     88% 0 mm WeatherDisplay:10.37 W/m2 CLR
06:05 23.4 °C 21.3 °C 1014.8 hPa Calm     88% 0 mm WeatherDisplay:10.37 W/m2 CLR
06:10 23.3 °C 21.2 °C 1014.8 hPa Calm     88% 0 mm WeatherDisplay:10.37 W/m2 CLR
06:15 23.3 °C 21.2 °C 1014.8 hPa Calm     88% 0 mm WeatherDisplay:10.37 W/m2 CLR
06:20 23.3 °C 21.2 °C 1014.8 hPa Calm     88% 0 mm WeatherDisplay:10.37 W/m2 CLR
06:25 23.3 °C 21.2 °C 1014.8 hPa Calm     88% 0 mm WeatherDisplay:10.37 W/m2 CLR
06:30 23.3 °C 21.2 °C 1014.8 hPa Calm     88% 0 mm WeatherDisplay:10.37 W/m2 CLR
06:40 23.3 °C 21.2 °C 1015.1 hPa Calm     88% 0 mm WeatherDisplay:10.37 W/m2 CLR
06:45 23.3 °C 21.2 °C 1015.1 hPa Calm     88% 0 mm WeatherDisplay:10.37 W/m2 CLR
06:50 23.2 °C 21.3 °C 1015.1 hPa Calm     89% 0 mm WeatherDisplay:10.37 W/m2 CLR
06:55 23.2 °C 21.3 °C 1015.1 hPa Calm     89% 0 mm WeatherDisplay:10.37 W/m2 CLR
07:00 23.2 °C 21.3 °C 1015.1 hPa Calm     89% 0 mm WeatherDisplay:10.37 W/m2 CLR
07:05 23.2 °C 21.3 °C 1015.1 hPa Calm     89% 0 mm WeatherDisplay:10.37 W/m2 CLR
07:10 23.2 °C 21.3 °C 1015.1 hPa Calm     89% 0 mm WeatherDisplay:10.37 W/m2 CLR
07:15 23.2 °C 21.3 °C 1015.1 hPa Calm     89% 0 mm WeatherDisplay:10.37 W/m2 BKN
07:20 23.2 °C 21.3 °C 1015.1 hPa Calm     89% 0 mm WeatherDisplay:10.37 W/m2 BKN
07:25 23.2 °C 21.3 °C 1015.1 hPa Calm     89% 0 mm WeatherDisplay:10.37 W/m2 BKN
07:30 23.3 °C 21.4 °C 1015.1 hPa Calm     89% 0 mm WeatherDisplay:10.37 W/m2 BKN
07:40 23.3 °C 21.4 °C 1015.5 hPa Calm     89% 0 mm WeatherDisplay:10.37 W/m2 BKN
07:45 23.4 °C 21.5 °C 1015.5 hPa Calm     89% 0 mm WeatherDisplay:10.37 W/m2 BKN
07:50 23.5 °C 21.6 °C 1015.5 hPa Calm   1.6 km/h 89% 0 mm WeatherDisplay:10.37 W/m2 BKN
07:55 23.6 °C 21.7 °C 1015.5 hPa Calm   1.6 km/h 89% 0 mm WeatherDisplay:10.37 W/m2 BKN
08:00 23.7 °C 21.8 °C 1015.5 hPa Calm     89% 0 mm WeatherDisplay:10.37 W/m2 BKN
08:10 23.8 °C 21.9 °C 1015.5 hPa Calm     89% 0 mm WeatherDisplay:10.37 W/m2 BKN
08:15 23.9 °C 22 °C 1015.5 hPa Calm     89% 0 mm WeatherDisplay:10.37 W/m2 FEW
08:20 24 °C 22.1 °C 1015.8 hPa Calm   1.6 km/h 89% 0 mm WeatherDisplay:10.37 W/m2 FEW
08:25 24.1 °C 22 °C 1015.8 hPa Calm   1.6 km/h 88% 0 mm WeatherDisplay:10.37 W/m2 FEW
08:30 24.2 °C 22.1 °C 1015.8 hPa Calm   1.6 km/h 88% 0 mm WeatherDisplay:10.37 W/m2 FEW
08:40 24.6 °C 22.2 °C 1015.8 hPa Calm     87% 0 mm WeatherDisplay:10.37 W/m2 FEW
08:45 24.7 °C 22.2 °C 1015.8 hPa Calm   1.6 km/h 86% 0 mm WeatherDisplay:10.37 W/m2 FEW
08:50 24.8 °C 22.1 °C 1015.8 hPa Calm   1.6 km/h 85% 0 mm WeatherDisplay:10.37 W/m2 FEW
08:55 24.9 °C 22.3 °C 1015.8 hPa Calm   1.6 km/h 85% 0 mm WeatherDisplay:10.37 W/m2 FEW
09:00 25.1 °C 22.2 °C 1015.8 hPa Calm   3.2 km/h 84% 0 mm WeatherDisplay:10.37 W/m2 FEW
09:05 25.2 °C 22.1 °C 1015.8 hPa Calm   3.2 km/h 83% 0 mm WeatherDisplay:10.37 W/m2 FEW
09:10 25.4 °C 22.3 °C 1015.8 hPa Calm   1.6 km/h 83% 0 mm WeatherDisplay:10.37 W/m2 FEW
09:15 25.6 °C 22.7 °C 1015.8 hPa Calm   1.6 km/h 84% 0 mm WeatherDisplay:10.37 W/m2 SCT
09:20 25.7 °C 22.6 °C 1015.8 hPa Calm   3.2 km/h 83% 0 mm WeatherDisplay:10.37 W/m2 SCT
09:25 25.7 °C 22.4 °C 1015.8 hPa Calm   1.6 km/h 82% 0 mm WeatherDisplay:10.37 W/m2 SCT
09:30 25.7 °C 22.4 °C 1015.8 hPa Calm     82% 0 mm WeatherDisplay:10.37 W/m2 SCT
09:40 26.1 °C 22.7 °C 1015.8 hPa Calm   3.2 km/h 82% 0 mm WeatherDisplay:10.37 W/m2 SCT
09:45 26.1 °C 22.3 °C 1015.5 hPa WNW 1.6 km/h 4.8 km/h 80% 0 mm WeatherDisplay:10.37 W/m2 SCT
09:50 26.2 °C 22.7 °C 1015.5 hPa Calm   8 km/h 81% 0 mm WeatherDisplay:10.37 W/m2 SCT
09:55 26.3 °C 22.6 °C 1015.5 hPa Calm   8 km/h 80% 0 mm WeatherDisplay:10.37 W/m2 SCT
10:00 26.6 °C 22.8 °C 1015.5 hPa Calm   1.6 km/h 80% 0 mm WeatherDisplay:10.37 W/m2 SCT
10:05 26.8 °C 23.1 °C 1015.5 hPa Calm   1.6 km/h 80% 0 mm WeatherDisplay:10.37 W/m2 SCT
10:10 26.9 °C 23 °C 1015.5 hPa Calm   4.8 km/h 79% 0 mm WeatherDisplay:10.37 W/m2 SCT
10:15 27.1 °C 22.9 °C 1015.1 hPa Calm   1.6 km/h 78% 0 mm WeatherDisplay:10.37 W/m2 BKN
10:20 27.3 °C 22.9 °C 1015.5 hPa Calm   3.2 km/h 77% 0 mm WeatherDisplay:10.37 W/m2 BKN
10:25 27.4 °C 22.8 °C 1015.5 hPa WNW 1.6 km/h 4.8 km/h 76% 0 mm WeatherDisplay:10.37 W/m2 BKN
10:30 27.5 °C 22.4 °C 1015.5 hPa Calm   3.2 km/h 74% 0 mm WeatherDisplay:10.37 W/m2 BKN
10:40 27.8 °C 22.8 °C 1015.5 hPa Calm   1.6 km/h 74% 0 mm WeatherDisplay:10.37 W/m2 BKN
10:45 27.9 °C 22.7 °C 1015.5 hPa Calm   8 km/h 73% 0 mm WeatherDisplay:10.37 W/m2 BKN
10:50 28.1 °C 22.6 °C 1015.5 hPa NW 1.6 km/h 4.8 km/h 72% 0 mm WeatherDisplay:10.37 W/m2 BKN
10:55 28 °C 22.7 °C 1015.5 hPa Calm   4.8 km/h 73% 0 mm WeatherDisplay:10.37 W/m2 BKN
11:00 27.9 °C 22.6 °C 1015.5 hPa Calm   3.2 km/h 73% 0 mm WeatherDisplay:10.37 W/m2 BKN
11:05 28 °C 22.7 °C 1015.5 hPa Calm   4.8 km/h 73% 0 mm WeatherDisplay:10.37 W/m2 BKN
11:10 28.2 °C 22.4 °C 1015.5 hPa WNW 1.6 km/h 4.8 km/h 71% 0 mm WeatherDisplay:10.37 W/m2 BKN
11:15 28.1 °C 22.6 °C 1015.5 hPa Calm   1.6 km/h 72% 0 mm WeatherDisplay:10.37 W/m2 SCT
11:20 28.1 °C 22.6 °C 1015.5 hPa Calm   3.2 km/h 72% 0 mm WeatherDisplay:10.37 W/m2 SCT
11:25 28.1 °C 22.6 °C 1015.5 hPa Calm   3.2 km/h 72% 0 mm WeatherDisplay:10.37 W/m2 BKN
11:30 28.3 °C 22.8 °C 1015.5 hPa Calm   4.8 km/h 72% 0 mm WeatherDisplay:10.37 W/m2 BKN
11:35 28.5 °C 22.7 °C 1015.5 hPa WSW 1.6 km/h 4.8 km/h 71% 0 mm WeatherDisplay:10.37 W/m2 BKN
11:40 28.3 °C 22.7 °C 1015.5 hPa Calm   1.6 km/h 72% 0 mm WeatherDisplay:10.37 W/m2 BKN
11:45 28.1 °C 22.8 °C 1015.5 hPa Calm   3.2 km/h 73% 0 mm WeatherDisplay:10.37 W/m2 BKN
11:50 28.1 °C 22.6 °C 1015.5 hPa Calm   1.6 km/h 72% 0 mm WeatherDisplay:10.37 W/m2 BKN
11:55 28.3 °C 23 °C 1015.5 hPa Calm   1.6 km/h 73% 0 mm WeatherDisplay:10.37 W/m2 BKN
12:00 28.5 °C 22.7 °C 1015.5 hPa NW 1.6 km/h 3.2 km/h 71% 0 mm WeatherDisplay:10.37 W/m2 BKN
12:05 28.5 °C 22.7 °C 1015.5 hPa West 1.6 km/h 8 km/h 71% 0 mm WeatherDisplay:10.37 W/m2 BKN
12:10 28.6 °C 22.8 °C 1015.5 hPa Calm   4.8 km/h 71% 0 mm WeatherDisplay:10.37 W/m2 BKN
12:15 28.9 °C 22.7 °C 1015.5 hPa SW 1.6 km/h 8 km/h 69% 0 mm WeatherDisplay:10.37 W/m2 BKN
12:20 29.2 °C 22.7 °C 1015.5 hPa Calm   3.2 km/h 68% 0 mm WeatherDisplay:10.37 W/m2 BKN
12:30 29.6 °C 23.1 °C 1015.5 hPa West 1.6 km/h 1.6 km/h 68% 0 mm WeatherDisplay:10.37 W/m2 BKN
12:40 30.1 °C 22.8 °C 1015.1 hPa Calm   4.8 km/h 65% 0 mm WeatherDisplay:10.37 W/m2 BKN
12:45 30.2 °C 22.3 °C 1015.1 hPa Calm   8 km/h 63% 0 mm WeatherDisplay:10.37 W/m2 BKN
12:50 30.1 °C 22.5 °C 1015.1 hPa Calm   3.2 km/h 64% 0 mm WeatherDisplay:10.37 W/m2 BKN
12:55 30.3 °C 22.4 °C 1015.1 hPa WNW 1.6 km/h 8 km/h 63% 0 mm WeatherDisplay:10.37 W/m2 BKN
13:00 30.6 °C 22.8 °C 1015.1 hPa West 1.6 km/h 11.3 km/h 63% 0 mm WeatherDisplay:10.37 W/m2 BKN
13:05 30.8 °C 22.2 °C 1015.1 hPa Calm   3.2 km/h 60% 0 mm WeatherDisplay:10.37 W/m2 BKN
13:10 31 °C 22.6 °C 1015.1 hPa Calm   3.2 km/h 61% 0 mm WeatherDisplay:10.37 W/m2 BKN
13:20 31.2 °C 22.2 °C 1014.8 hPa Calm   4.8 km/h 59% 0 mm WeatherDisplay:10.37 W/m2 BKN
13:40 31.7 °C 21.8 °C 1014.8 hPa Calm   4.8 km/h 56% 0 mm WeatherDisplay:10.37 W/m2 BKN
13:50 31.8 °C 21.4 °C 1014.4 hPa SW 1.6 km/h 9.7 km/h 54% 0 mm WeatherDisplay:10.37 W/m2 BKN
13:55 32 °C 22.2 °C 1014.4 hPa SW 1.6 km/h 3.2 km/h 56% 0 mm WeatherDisplay:10.37 W/m2 BKN
14:00 32.6 °C 22.3 °C 1014.4 hPa North 1.6 km/h 4.8 km/h 55% 0 mm WeatherDisplay:10.37 W/m2 BKN
14:05 32.6 °C 21.7 °C 1014.4 hPa Calm   3.2 km/h 53% 0 mm WeatherDisplay:10.37 W/m2 BKN
14:10 32.5 °C 21.7 °C 1014.4 hPa Calm   9.7 km/h 53% 0 mm WeatherDisplay:10.37 W/m2 BKN
14:15 32.6 °C 21.4 °C 1014.4 hPa Calm   3.2 km/h 52% 0 mm WeatherDisplay:10.37 W/m2 BKN
14:25 32.7 °C 21.8 °C 1014.4 hPa WNW 1.6 km/h 4.8 km/h 53% 0 mm WeatherDisplay:10.37 W/m2 BKN
14:30 32.4 °C 21.6 °C 1014.4 hPa West 1.6 km/h 8 km/h 53% 0 mm WeatherDisplay:10.37 W/m2 BKN
14:35 31.9 °C 21.2 °C 1014.4 hPa SSW 1.6 km/h 8 km/h 53% 0 mm WeatherDisplay:10.37 W/m2 BKN
14:45 31.4 °C 21.6 °C 1014.4 hPa Calm   4.8 km/h 56% 0 mm WeatherDisplay:10.37 W/m2 BKN
14:50 31.3 °C 21.5 °C 1014.1 hPa Calm   3.2 km/h 56% 0 mm WeatherDisplay:10.37 W/m2 BKN
14:55 31.3 °C 21.7 °C 1014.1 hPa Calm   3.2 km/h 57% 0 mm WeatherDisplay:10.37 W/m2 BKN
15:00 31.1 °C 21 °C 1014.1 hPa WSW 1.6 km/h 4.8 km/h 55% 0 mm WeatherDisplay:10.37 W/m2 BKN
15:05 30.9 °C 21.2 °C 1014.1 hPa Calm   3.2 km/h 56% 0 mm WeatherDisplay:10.37 W/m2 BKN
15:10 31.1 °C 20.7 °C 1014.1 hPa WSW 1.6 km/h 8 km/h 54% 0 mm WeatherDisplay:10.37 W/m2 BKN
15:15 31.1 °C 21.3 °C 1013.8 hPa Calm   3.2 km/h 56% 0 mm WeatherDisplay:10.37 W/m2 BKN
15:20 31 °C 21.2 °C 1013.8 hPa West 1.6 km/h 3.2 km/h 56% 0 mm WeatherDisplay:10.37 W/m2 BKN
15:25 30.8 °C 21.3 °C 1013.8 hPa Calm   1.6 km/h 57% 0 mm WeatherDisplay:10.37 W/m2 BKN
15:30 30.8 °C 21.3 °C 1013.8 hPa Calm   3.2 km/h 57% 0 mm WeatherDisplay:10.37 W/m2 BKN
15:40 30.7 °C 21.2 °C 1013.8 hPa Calm   3.2 km/h 57% 0 mm WeatherDisplay:10.37 W/m2 BKN
15:45 30.6 °C 19.6 °C 1013.8 hPa WSW 1.6 km/h 8 km/h 52% 0 mm WeatherDisplay:10.37 W/m2 BKN
15:55 30.6 °C 20.5 °C 1013.4 hPa Calm   3.2 km/h 55% 0 mm WeatherDisplay:10.37 W/m2 BKN
16:00 30.7 °C 20.3 °C 1013.4 hPa West 1.6 km/h 4.8 km/h 54% 0 mm WeatherDisplay:10.37 W/m2 BKN
16:05 30.7 °C 20.9 °C 1013.4 hPa Calm   8 km/h 56% 0 mm WeatherDisplay:10.37 W/m2 BKN
16:10 30.7 °C 20.3 °C 1013.4 hPa WSW 1.6 km/h 11.3 km/h 54% 0 mm WeatherDisplay:10.37 W/m2 BKN
16:15 30.7 °C 20 °C 1013.4 hPa SW 1.6 km/h 4.8 km/h 53% 0 mm WeatherDisplay:10.37 W/m2 BKN
16:20 30.7 °C 20.9 °C 1013.4 hPa Calm   3.2 km/h 56% 0 mm WeatherDisplay:10.37 W/m2 BKN
16:25 30.8 °C 19.8 °C 1013.4 hPa Calm   3.2 km/h 52% 0 mm WeatherDisplay:10.37 W/m2 BKN
16:30 30.7 °C 19.7 °C 1013.1 hPa NW 1.6 km/h 4.8 km/h 52% 0 mm WeatherDisplay:10.37 W/m2 BKN
16:35 30.7 °C 20 °C 1013.1 hPa West 1.6 km/h 4.8 km/h 53% 0 mm WeatherDisplay:10.37 W/m2 BKN
16:40 30.7 °C 20.3 °C 1013.1 hPa Calm   3.2 km/h 54% 0 mm WeatherDisplay:10.37 W/m2 BKN
16:45 30.7 °C 20.1 °C 1013.1 hPa WNW 1.6 km/h 3.2 km/h 53% 0 mm WeatherDisplay:10.37 W/m2 BKN
16:50 30.8 °C 19.5 °C 1013.1 hPa Calm   4.8 km/h 51% 0 mm WeatherDisplay:10.37 W/m2 BKN
16:55 30.8 °C 19.8 °C 1013.1 hPa Calm   3.2 km/h 52% 0 mm WeatherDisplay:10.37 W/m2 BKN
17:00 30.8 °C 20.2 °C 1013.1 hPa Calm   3.2 km/h 53% 0 mm WeatherDisplay:10.37 W/m2 BKN
17:05 30.8 °C 20.2 °C 1013.1 hPa Calm   4.8 km/h 53% 0 mm WeatherDisplay:10.37 W/m2 BKN
17:10 30.8 °C 19.8 °C 1013.1 hPa Calm   3.2 km/h 52% 0 mm WeatherDisplay:10.37 W/m2 BKN
17:15 30.6 °C 19.9 °C 1013.4 hPa Calm   1.6 km/h 53% 0 mm WeatherDisplay:10.37 W/m2 BKN
17:20 30.4 °C 19.7 °C 1013.1 hPa Calm   1.6 km/h 53% 0 mm WeatherDisplay:10.37 W/m2 BKN
17:25 30.4 °C 20.1 °C 1013.4 hPa Calm   1.6 km/h 54% 0 mm WeatherDisplay:10.37 W/m2 BKN
17:30 30.4 °C 20.1 °C 1013.4 hPa Calm   1.6 km/h 54% 0 mm WeatherDisplay:10.37 W/m2 BKN
17:35 30.3 °C 20.3 °C 1013.4 hPa Calm   3.2 km/h 55% 0 mm WeatherDisplay:10.37 W/m2 BKN
17:40 30.3 °C 19.7 °C 1013.4 hPa Calm   1.6 km/h 53% 0 mm WeatherDisplay:10.37 W/m2 BKN
17:45 30.3 °C 19.7 °C 1013.4 hPa Calm   3.2 km/h 53% 0 mm WeatherDisplay:10.37 W/m2 BKN
17:50 30.4 °C 19.2 °C 1013.4 hPa Calm   3.2 km/h 51% 0 mm WeatherDisplay:10.37 W/m2 BKN
18:00 30.3 °C 19.7 °C 1013.4 hPa Calm   1.6 km/h 53% 0 mm WeatherDisplay:10.37 W/m2 BKN
18:05 30.2 °C 19.8 °C 1013.4 hPa Calm   1.6 km/h 54% 0 mm WeatherDisplay:10.37 W/m2 BKN
18:10 30.1 °C 20 °C 1013.4 hPa Calm   1.6 km/h 55% 0 mm WeatherDisplay:10.37 W/m2 BKN
18:15 29.9 °C 20.2 °C 1013.4 hPa Calm     56% 0 mm WeatherDisplay:10.37 W/m2 BKN
18:20 29.8 °C 19.8 °C 1013.4 hPa Calm   3.2 km/h 55% 0 mm WeatherDisplay:10.37 W/m2 SCT
18:25 29.7 °C 19.3 °C 1013.4 hPa Calm     54% 0 mm WeatherDisplay:10.37 W/m2 SCT
18:30 29.6 °C 19.6 °C 1013.8 hPa Calm   3.2 km/h 55% 0 mm WeatherDisplay:10.37 W/m2 SCT
18:35 29.4 °C 20.1 °C 1013.8 hPa Calm   3.2 km/h 57% 0 mm WeatherDisplay:10.37 W/m2 SCT
18:40 29.3 °C 19.7 °C 1013.8 hPa Calm   1.6 km/h 56% 0 mm WeatherDisplay:10.37 W/m2 SCT
18:45 29.2 °C 19.8 °C 1013.4 hPa Calm   1.6 km/h 57% 0 mm WeatherDisplay:10.37 W/m2 SCT
18:50 29.1 °C 20.2 °C 1013.8 hPa Calm   1.6 km/h 59% 0 mm WeatherDisplay:10.37 W/m2 SCT
18:55 28.9 °C 19.6 °C 1013.8 hPa Calm   1.6 km/h 57% 0 mm WeatherDisplay:10.37 W/m2 SCT
19:00 28.9 °C 19.8 °C 1013.8 hPa Calm     58% 0 mm WeatherDisplay:10.37 W/m2 SCT
19:05 28.8 °C 19.2 °C 1013.8 hPa Calm   3.2 km/h 56% 0 mm WeatherDisplay:10.37 W/m2 SCT
19:15 28.7 °C 19.1 °C 1013.8 hPa Calm   1.6 km/h 56% 0 mm WeatherDisplay:10.37 W/m2 SCT
19:20 28.6 °C 19.8 °C 1013.8 hPa Calm     59% 0 mm WeatherDisplay:10.37 W/m2 SCT
19:25 28.4 °C 19.3 °C 1013.8 hPa Calm     58% 0 mm WeatherDisplay:10.37 W/m2 SCT
19:30 28.3 °C 19.2 °C 1014.1 hPa Calm     58% 0 mm WeatherDisplay:10.37 W/m2 FEW
19:40 27.9 °C 19.4 °C 1014.1 hPa Calm     60% 0 mm WeatherDisplay:10.37 W/m2 FEW
19:45 27.8 °C 19.6 °C 1014.1 hPa Calm     61% 0 mm WeatherDisplay:10.37 W/m2 FEW
19:50 27.6 °C 19.7 °C 1014.1 hPa Calm     62% 0 mm WeatherDisplay:10.37 W/m2 FEW
19:55 27.4 °C 20.1 °C 1014.1 hPa Calm     64% 0 mm WeatherDisplay:10.37 W/m2 FEW
20:00 27.3 °C 20.2 °C 1014.1 hPa Calm     65% 0 mm WeatherDisplay:10.37 W/m2 FEW
20:05 27.2 °C 19.7 °C 1014.1 hPa Calm     64% 0 mm WeatherDisplay:10.37 W/m2 FEW
20:10 27 °C 19.8 °C 1014.1 hPa Calm     65% 0 mm WeatherDisplay:10.37 W/m2 FEW
20:15 26.9 °C 19.7 °C 1014.4 hPa Calm     65% 0 mm WeatherDisplay:10.37 W/m2 FEW
20:20 26.7 °C 20.1 °C 1014.4 hPa Calm     67% 0 mm WeatherDisplay:10.37 W/m2 FEW
20:25 26.6 °C 19.9 °C 1014.1 hPa Calm     67% 0 mm WeatherDisplay:10.37 W/m2 FEW
20:30 26.4 °C 20.1 °C 1014.4 hPa Calm     68% 0 mm WeatherDisplay:10.37 W/m2 FEW
20:35 26.3 °C 19.9 °C 1014.4 hPa Calm     68% 0 mm WeatherDisplay:10.37 W/m2 FEW
20:40 26.2 °C 19.8 °C 1014.4 hPa Calm     68% 0 mm WeatherDisplay:10.37 W/m2 FEW
20:45 26.1 °C 19.7 °C 1014.4 hPa Calm     68% 0 mm WeatherDisplay:10.37 W/m2 FEW
20:50 26 °C 19.6 °C 1014.4 hPa Calm     68% 0 mm WeatherDisplay:10.37 W/m2 FEW
21:00 25.7 °C 19.8 °C 1014.4 hPa Calm     70% 0 mm WeatherDisplay:10.37 W/m2 FEW
21:05 25.6 °C 19.7 °C 1014.4 hPa Calm     70% 0 mm WeatherDisplay:10.37 W/m2 FEW
21:10 25.5 °C 19.6 °C 1014.4 hPa Calm     70% 0 mm WeatherDisplay:10.37 W/m2 FEW
21:15 25.4 °C 19.7 °C 1014.4 hPa Calm     71% 0 mm WeatherDisplay:10.37 W/m2 FEW
21:20 25.2 °C 20.1 °C 1014.4 hPa Calm     73% 0 mm WeatherDisplay:10.37 W/m2 FEW
21:25 25.1 °C 19.9 °C 1014.4 hPa Calm     73% 0 mm WeatherDisplay:10.37 W/m2 FEW
21:30 25 °C 19.8 °C 1014.4 hPa Calm     73% 0 mm WeatherDisplay:10.37 W/m2 FEW
21:35 24.9 °C 19.9 °C 1014.4 hPa Calm     74% 0 mm WeatherDisplay:10.37 W/m2 FEW
21:40 24.8 °C 19.6 °C 1014.4 hPa Calm     73% 0 mm WeatherDisplay:10.37 W/m2 FEW
21:45 24.7 °C 19.7 °C 1014.4 hPa Calm     74% 0 mm WeatherDisplay:10.37 W/m2 FEW
21:50 24.6 °C 19.6 °C 1014.8 hPa Calm     74% 0 mm WeatherDisplay:10.37 W/m2 FEW
21:55 24.4 °C 19.7 °C 1014.4 hPa Calm     75% 0 mm WeatherDisplay:10.37 W/m2 FEW
22:00 24.3 °C 19.4 °C 1014.8 hPa Calm     74% 0 mm WeatherDisplay:10.37 W/m2 FEW
22:05 24.3 °C 19.6 °C 1014.8 hPa Calm     75% 0 mm WeatherDisplay:10.37 W/m2 FEW
22:10 24.2 °C 19.7 °C 1014.8 hPa Calm     76% 0 mm WeatherDisplay:10.37 W/m2 FEW
22:15 24.1 °C 19.6 °C 1014.8 hPa Calm     76% 0 mm WeatherDisplay:10.37 W/m2 FEW
22:20 24.1 °C 19.6 °C 1014.8 hPa Calm     76% 0 mm WeatherDisplay:10.37 W/m2 CLR
22:30 23.9 °C 19.7 °C 1014.8 hPa Calm     77% 0 mm WeatherDisplay:10.37 W/m2 CLR
22:35 23.8 °C 19.5 °C 1014.8 hPa Calm     77% 0 mm WeatherDisplay:10.37 W/m2 CLR
22:40 23.7 °C 19.7 °C 1014.8 hPa Calm     78% 0 mm WeatherDisplay:10.37 W/m2 CLR
22:45 23.7 °C 19.6 °C 1014.8 hPa Calm     78% 0 mm WeatherDisplay:10.37 W/m2 CLR
22:50 23.6 °C 19.5 °C 1014.8 hPa Calm     78% 0 mm WeatherDisplay:10.37 W/m2 CLR
22:55 23.5 °C 19.4 °C 1014.8 hPa Calm     78% 0 mm WeatherDisplay:10.37 W/m2 CLR
23:00 23.4 °C 19.4 °C 1014.8 hPa Calm     78% 0 mm WeatherDisplay:10.37 W/m2 CLR
23:05 23.3 °C 19.5 °C 1014.8 hPa Calm     79% 0 mm WeatherDisplay:10.37 W/m2 CLR
23:10 23.3 °C 19.4 °C 1014.8 hPa Calm     79% 0 mm WeatherDisplay:10.37 W/m2 CLR
23:20 23.2 °C 19.5 °C 1014.8 hPa Calm     80% 0 mm WeatherDisplay:10.37 W/m2 CLR
23:30 23.1 °C 19.4 °C 1014.8 hPa Calm     80% 0 mm WeatherDisplay:10.37 W/m2 CLR
23:35 23 °C 19.6 °C 1014.8 hPa Calm     81% 0 mm WeatherDisplay:10.37 W/m2 CLR
23:40 22.9 °C 19.3 °C 1014.4 hPa Calm     80% 0 mm WeatherDisplay:10.37 W/m2 CLR
23:45 22.8 °C 19.4 °C 1014.8 hPa Calm     81% 0 mm WeatherDisplay:10.37 W/m2 CLR
23:50 22.8 °C 19.4 °C 1014.8 hPa Calm     81% 0 mm WeatherDisplay:10.37 W/m2 CLR
23:55 22.8 °C 19.3 °C 1014.8 hPa Calm     81% 0 mm WeatherDisplay:10.37 W/m2 CLR
Piedmont Bend
Compliments of Weather Underground - 4 mb